Lapse_Rate
3.5 3.9 4.7 5.1 5.1 4.8 4.5 5.1 4.6 4.0 3.8 4.2 5.3 5.9 6.1 6.6 6.5 6.6 6.4 6.4 6.1 6.3 6.2 5.6 5.4 5.4 5.9 5.7 5.6 5.1 4.6 4.7 5.2 5.1 5.1 4.9 4.7 4.5 5.1 4.9 5.0 5.4 5.6
3.4 3.6 4.4 5.0 4.8 4.2 4.5 4.4 4.6 4.4 4.8 4.8 5.0 5.4 5.6 5.8 5.6 6.3 5.8 5.6 5.6 5.9 5.8 5.5 5.5 5.6 5.7 5.4 5.3 5.1 4.9 4.9 4.4 4.7 4.8 4.7 5.4 5.4 5.2 4.8 4.6 5.2 5.8
2.9 3.4 3.9 4.5 4.8 5.3 4.7 4.4 4.5 4.9 4.8 4.9 5.2 5.6 5.7 5.5 5.4 5.4 5.1 4.5 4.7 5.8 6.1 6.1 6.2 6.0 6.0 5.5 5.1 5.2 5.1 5.2 5.0 5.4 5.0 4.6 4.6 5.8 5.5 5.2 4.8 4.9 5.6
3.1 3.5 3.9 4.2 4.3 4.3 4.2 3.9 3.8 4.1 4.3 4.6 4.9 5.3 5.7 5.7 5.7 5.4 5.0 5.0 4.8 5.4 6.2 6.1 6.0 5.9 6.1 5.4 5.6 6.1 5.9 5.3 5.1 5.0 4.6 4.7 5.1 5.7 6.4 5.7 5.8 5.3 5.5
3.1 3.4 3.5 3.5 3.7 3.4 3.4 3.3 3.3 3.5 3.9 4.0 4.2 4.4 5.3 5.5 5.4 5.0 4.4 4.5 5.0 5.6 5.6 5.4 5.4 5.3 4.8 4.7 5.5 5.2 4.9 4.9 4.9 4.9 4.7 4.9 4.9 5.3 6.5 6.5 6.2 6.0 5.9
2.1 2.7 3.3 3.5 3.3 3.1 3.1 3.0 2.8 2.6 2.6 2.8 3.5 4.2 4.8 4.9 4.4 4.1 4.0 3.8 4.8 5.4 5.1 4.9 5.3 5.1 4.5 4.4 4.8 4.7 4.8 4.6 4.6 4.4 4.0 5.1 5.1 5.3 6.3 6.3 6.7 6.4 5.9
0.8 2.4 3.0 3.1 3.1 3.1 3.0 2.7 2.7 2.8 2.9 3.2 3.3 3.3 3.5 3.9 4.4 4.4 4.4 4.6 4.6 4.4 4.4 5.1 5.0 5.0 4.9 4.6 4.5 4.5 4.5 4.7 4.2 3.8 4.0 3.9 4.4 5.1 5.7 6.4 6.4 6.8 6.3
0.9 1.8 2.3 3.1 3.2 3.1 3.1 3.1 3.6 3.7 3.8 4.0 4.0 3.9 3.8 3.9 3.9 3.9 3.8 3.7 3.6 3.8 4.0 4.1 4.0 3.9 4.0 4.5 4.9 4.8 4.6 4.6 3.9 3.6 3.9 3.8 4.1 4.5 5.6 6.1 6.4 6.5 6.4
1.9 1.4 2.1 2.8 3.0 3.2 3.2 3.4 3.7 3.9 4.1 4.2 4.3 4.1 4.0 3.9 3.9 4.0 4.0 3.9 3.7 3.7 3.9 3.9 3.8 3.9 4.0 3.9 4.0 4.2 4.4 4.6 3.9 3.6 3.9 4.0 4.5 4.9 5.6 6.3 6.4 6.1 6.2
1.1 1.7 1.7 2.3 2.7 2.4 2.6 3.3 4.1 4.4 4.3 4.2 3.9 3.7 3.6 3.6 3.6 3.6 3.4 3.7 3.8 3.8 3.9 3.9 3.6 3.4 3.3 3.3 3.4 4.0 4.1 4.0 3.4 3.3 3.3 3.8 4.1 5.7 6.5 6.8 7.0 6.3 6.1
2.0 1.6 1.9 2.1 2.2 2.2 2.2 3.2 3.7 4.3 4.4 4.2 3.9 3.5 3.2 2.9 3.0 3.1 3.2 3.1 2.9 2.8 3.0 3.2 2.9 2.8 2.8 2.4 2.9 3.3 3.5 3.2 3.3 3.3 3.5 4.1 4.9 5.3 6.3 6.4 6.3 6.5 6.5
2.4 2.1 1.4 1.4 1.5 1.8 2.5 3.0 3.3 3.8 3.6 3.7 3.5 3.3 3.1 2.9 3.0 3.0 3.1 3.1 2.7 2.4 2.6 2.6 2.4 1.8 1.6 1.3 1.7 2.4 2.2 2.6 2.7 3.0 3.6 4.0 4.6 5.4 5.8 6.0 6.3 6.4 6.7
2.1 1.7 1.2 1.0 1.3 1.2 1.5 2.2 2.3 2.7 3.1 3.2 3.4 3.1 2.9 2.7 2.6 2.4 2.3 2.4 2.3 2.3 1.6 1.4 1.3 1.2 1.5 1.5 1.3 1.3 1.6 1.6 1.6 2.2 3.0 4.2 5.1 5.9 6.2 6.1 6.2 6.4 6.2
1.2 1.5 1.2 0.6 0.7 1.0 1.5 1.3 1.6 1.8 2.6 2.8 3.4 3.4 2.7 2.1 1.9 1.8 1.3 1.4 1.1 1.1 0.8 0.7 0.6 0.9 1.1 1.2 1.4 1.6 2.2 1.6 1.8 2.2 2.7 3.7 4.8 5.6 6.1 6.4 6.4 6.4 6.5
1.6 1.5 0.7 -0.4 -0.7 0.3 0.5 0.8 1.2 1.4 2.3 3.0 3.1 3.4 3.2 2.6 2.0 2.2 1.8 1.6 1.3 1.2 0.9 0.7 0.8 0.9 0.9 1.1 1.3 1.1 1.4 1.9 2.0 2.1 2.6 3.2 4.1 5.4 5.8 5.8 5.9 6.3 6.5
1.3 1.1 0.4 -0.3 -0.3 0.3 -0.1 0.7 0.9 1.6 2.1 2.1 2.6 3.6 4.0 3.4 2.6 2.1 1.7 1.4 1.6 1.8 1.6 1.4 0.9 0.5 0.1 0.5 0.3 0.7 0.7 1.4 2.2 2.3 2.1 2.5 2.7 3.8 4.9 5.7 5.7 5.8 5.9
0.2 0.9 0.1 -0.3 -0.2 -0.2 0.5 1.0 1.1 1.6 1.8 1.5 2.3 3.2 3.5 3.4 2.7 2.4 1.5 1.0 1.7 2.1 2.0 1.6 1.1 0.6 -0.2 0.2 0.6 0.6 1.1 1.6 1.6 2.1 2.7 2.5 2.6 3.4 3.8 4.6 5.5 5.8 5.9
-0.1 0.3 0.1 1.2 -0.1 -0.3 0.2 0.8 1.1 1.6 1.5 1.6 2.2 2.7 3.0 3.3 3.3 2.3 1.2 1.0 2.2 1.7 1.4 0.4 0.2 0.5 0.5 0.5 0.7 0.6 0.7 1.6 2.1 2.4 2.8 2.9 3.4 3.2 4.0 4.6 5.4 5.4 5.4
0.0 0.4 0.2 -0.4 0.0 0.1 0.1 0.3 0.5 0.9 0.4 0.9 1.3 1.5 2.1 2.6 3.0 2.1 1.2 1.5 2.1 1.0 0.4 0.1 -0.1 0.3 0.4 0.4 0.8 0.7 0.5 0.8 1.5 3.0 2.9 2.8 3.4 3.7 3.8 4.2 4.9 5.0 5.7
-0.0 0.0 0.0 -0.3 -0.0 -0.1 -0.7 -0.8 -0.9 -1.1 -0.4 0.4 0.3 0.7 1.7 2.0 2.3 1.5 0.9 1.0 1.4 0.2 0.0 -0.3 0.5 -0.1 0.7 1.0 2.5 2.3 0.8 0.8 0.9 1.1 2.1 3.0 3.1 3.8 3.8 4.0 4.1 5.1 5.2
-0.7 -0.3 -0.3 0.1 0.1 -0.8 -0.8 -0.2 -0.1 0.4 0.2 -0.3 0.2 1.3 1.6 1.6 1.8 1.3 0.6 0.3 0.4 0.5 1.0 0.2 0.3 0.8 0.3 -0.0 1.5 1.3 0.9 0.8 0.9 1.2 1.7 1.8 2.6 3.6 3.7 3.9 3.7 4.2 4.8
-0.0 -0.5 -0.2 -0.1 0.2 -0.5 -0.5 -0.6 -0.1 -0.3 -0.3 -0.3 0.3 1.0 1.7 1.5 1.4 1.3 0.7 0.7 0.2 0.8 -0.1 0.1 0.1 0.1 0.6 -0.4 1.5 1.0 2.9 2.3 1.3 1.5 1.9 2.1 2.1 2.4 3.7 4.3 4.3 4.1 4.3
-0.2 -0.4 0.4 0.4 0.7 0.5 0.5 0.0 0.3 0.1 0.1 0.4 1.0 0.6 1.4 2.0 2.2 1.5 2.0 1.7 1.2 0.8 1.6 1.3 1.0 0.7 2.1 -0.3 0.7 2.9 2.4 3.0 1.4 1.9 2.7 2.4 2.0 1.8 2.2 3.5 4.8 4.8 4.7
0.3 -0.1 -0.3 0.1 0.9 1.6 1.3 1.3 1.2 1.0 1.6 2.0 1.6 1.6 2.6 2.4 1.6 2.3 2.1 2.1 1.9 1.9 1.9 1.1 0.6 1.0 1.0 1.2 0.9 2.6 2.6 2.4 3.1 3.4 2.7 3.6 3.2 3.1 2.4 2.6 3.5 4.4 4.9
-0.7 -0.9 -0.9 0.5 1.1 1.1 1.3 1.3 0.7 0.8 0.4 0.8 0.8 0.7 1.0 1.1 1.6 1.9 2.3 2.4 1.4 1.3 1.8 1.6 1.1 1.3 1.8 2.1 2.4 2.0 2.9 3.2 3.5 4.4 4.8 4.5 4.8 3.7 3.1 3.2 3.3 3.4 4.3
-0.5 -0.3 0.3 0.9 1.3 0.8 0.6 0.7 1.0 0.2 0.4 0.9 1.7 1.1 1.5 0.9 0.4 -0.0 0.5 0.3 -0.3 -0.7 -0.1 1.6 2.1 2.0 2.1 3.2 3.0 4.1 4.5 5.1 5.7 5.7 5.2 5.5 5.0 4.1 3.8 4.5 4.5 4.3 5.1
Wind_Speed
2 2 1 2 6 8 15 10 13 15 17 14 12 11 12 13 13 9 11 10 12 10 8 7 6 6 5 6 5 8 8 8 5 6 7 8 10 11 10 12 10 7 10
6 2 2 4 7 13 11 11 10 14 14 14 11 10 10 12 13 10 14 13 12 9 7 7 5 5 3 4 3 6 7 6 8 6 5 7 4 8 9 10 10 8 8
4 3 3 4 8 9 13 14 14 11 13 12 10 8 8 10 10 11 13 12 10 6 6 3 1 3 3 4 4 2 3 3 4 1 4 3 5 2 4 7 8 11 9
6 5 5 6 8 10 12 14 16 13 12 10 8 5 6 9 9 9 8 5 2 3 3 2 2 3 3 2 4 3 3 6 6 4 5 3 1 1 3 5 6 9 10
7 7 6 8 7 11 11 13 13 13 11 10 7 6 6 8 8 6 4 4 3 2 1 1 2 2 2 4 3 7 7 6 6 5 1 3 6 4 6 6 8 8 12
6 8 9 9 9 10 10 11 10 10 10 9 6 6 6 7 8 5 4 3 4 2 3 1 3 3 3 4 6 5 5 4 3 3 4 3 2 5 7 13 13 11 17
7 8 8 9 10 10 9 9 9 9 10 7 6 5 6 6 7 5 1 1 3 6 7 3 4 5 7 8 9 10 9 8 8 7 5 5 2 4 9 16 12 13 13
7 10 9 8 6 7 7 8 7 9 8 7 7 7 7 7 7 7 7 7 7 6 5 5 4 2 5 8 7 9 9 9 7 6 7 8 9 8 8 10 8 12 13
8 8 6 4 4 6 7 5 5 5 5 6 7 8 8 8 9 9 10 10 11 11 10 8 7 7 10 10 11 12 12 12 12 11 9 11 15 15 12 11 12 15 14
4 4 4 3 3 5 4 3 2 2 2 4 6 5 6 7 7 7 8 10 11 11 11 11 10 10 10 11 12 12 10 10 12 13 13 13 16 18 14 14 11 17 15
2 3 4 3 2 1 1 1 2 1 2 3 5 5 5 5 4 4 6 8 9 8 8 8 8 8 9 10 10 10 9 9 8 9 9 13 16 18 19 16 10 6 11
4 5 4 5 4 3 2 2 3 2 2 2 4 6 5 4 4 3 4 4 4 4 4 5 6 7 7 7 8 10 9 8 6 7 8 11 14 14 14 15 15 10 8
6 3 6 5 6 6 6 6 5 5 3 3 3 6 5 4 3 3 3 2 3 4 4 4 4 5 6 6 6 6 7 6 6 6 6 8 8 12 12 11 11 12 11
7 7 5 6 5 6 8 8 8 5 5 5 6 7 7 6 6 6 6 5 3 2 0 1 2 3 3 3 3 4 5 6 8 9 9 10 11 11 11 12 11 12 13
7 7 7 6 5 5 5 6 7 5 6 6 6 7 7 6 5 6 6 5 4 4 3 2 1 1 2 4 4 2 3 4 5 7 9 11 9 9 11 12 12 13 13
7 8 7 6 7 6 4 4 5 6 7 7 8 8 8 9 8 7 5 5 5 6 5 3 2 1 0 2 3 5 4 3 5 7 10 13 14 12 12 12 13 14 13
7 6 8 6 5 5 4 5 5 6 7 7 9 10 10 10 9 8 6 5 8 8 7 5 3 1 0 1 1 3 3 4 4 4 7 11 15 15 15 13 16 17 17
5 8 6 4 6 5 4 4 5 6 7 8 9 10 11 12 11 9 5 5 11 10 9 4 3 3 2 2 2 3 2 4 3 2 2 5 10 12 15 13 15 17 18
5 6 6 6 8 6 4 3 4 6 8 10 11 12 15 14 14 12 8 9 13 9 6 4 4 3 3 4 4 3 3 3 3 3 2 1 5 8 10 11 16 16 18
7 6 5 6 7 5 1 1 3 4 8 11 12 14 16 17 17 14 10 10 12 4 4 4 5 4 4 4 3 3 4 4 4 3 3 3 3 4 8 8 13 15 19
5 6 8 7 7 3 1 2 2 4 4 4 9 16 16 16 18 14 9 7 9 7 9 7 4 6 5 4 1 2 3 5 5 5 6 3 1 2 2 7 10 12 15
6 8 8 8 6 5 1 1 1 2 3 4 7 11 15 16 17 14 9 9 8 8 7 8 7 4 4 5 4 2 2 3 2 4 3 3 3 2 1 6 8 13 13
7 8 5 4 4 2 3 2 3 2 3 3 4 4 7 14 16 14 14 10 10 9 10 12 10 9 7 4 5 4 2 5 0 2 4 2 2 0 1 4 10 10 13
3 5 5 5 6 5 4 2 2 2 4 4 4 4 8 13 13 14 15 13 11 8 9 8 6 5 3 5 1 2 1 3 3 2 2 2 2 1 3 3 5 10 13
7 6 7 6 6 4 3 2 3 5 4 5 6 8 8 8 11 12 13 11 8 5 4 5 4 4 3 3 2 1 2 2 1 2 3 2 2 3 3 3 6 8 10
7 7 5 6 5 7 8 7 5 7 8 6 7 6 6 4 4 5 7 2 3 4 5 5 6 7 5 4 4 2 2 2 2 2 2 2 5 4 2 3 4 5 11
Wind_Direction
210 204 158 69 41 81 98 107 106 103 100 95 88 92 106 118 110 116 107 93 80 88 91 81 76 69 75 90 124 136 131 141 133 113 115 128 133 118 128 118 102 100 116
114 111 83 48 57 70 89 88 80 94 92 101 104 108 113 115 109 112 97 81 70 67 77 88 97 98 82 94 115 126 142 151 126 133 138 119 109 147 140 128 125 137 143
103 102 108 97 84 73 67 76 80 76 98 104 120 129 126 108 96 96 83 65 50 54 67 60 176 183 209 170 137 133 143 110 93 93 113 104 129 157 153 164 141 151 158
124 146 155 123 92 82 74 82 77 71 71 97 109 118 132 122 121 112 100 84 352 42 28 354 324 291 228 195 182 184 44 39 28 1 7 354 322 125 227 218 197 172 176
142 153 145 125 125 95 82 68 71 73 70 77 98 108 112 107 107 110 87 49 333 192 84 17 312 300 260 230 249 37 38 40 33 21 38 337 327 350 296 244 241 223 195
158 152 148 137 116 106 108 105 97 94 93 86 89 91 83 89 106 152 174 216 190 179 203 321 316 298 287 301 325 18 21 21 20 336 311 245 248 312 286 284 262 245 210
154 157 158 147 144 138 127 111 97 90 83 95 92 89 86 74 76 79 86 136 47 33 10 355 327 318 327 356 348 355 4 6 7 345 360 330 325 315 316 314 230 230 208
159 164 164 161 133 111 89 78 72 66 66 61 58 62 63 65 67 65 63 61 47 47 37 18 359 336 338 338 350 6 14 16 29 20 359 349 350 339 312 317 264 230 227
165 151 148 113 98 84 73 78 79 86 88 79 61 56 54 55 53 51 51 60 59 60 57 57 52 49 56 51 37 28 28 21 18 9 13 12 360 332 301 298 279 239 226
141 132 149 158 101 84 77 73 75 77 88 95 92 88 78 67 65 67 69 73 70 65 60 58 53 44 46 47 47 41 44 35 27 16 6 355 358 353 328 319 283 217 214
168 171 180 187 171 149 131 97 87 102 97 109 125 138 126 117 110 92 107 107 96 89 79 68 55 36 28 25 29 51 55 37 29 11 6 359 354 358 357 355 355 241 232
203 217 204 209 209 222 219 220 146 139 136 151 166 169 166 157 152 138 140 123 108 105 79 54 43 39 31 24 19 19 34 23 14 357 351 355 355 349 351 356 355 335 315
200 209 205 212 230 221 232 214 202 183 180 193 187 193 199 199 193 189 211 290 338 0 15 27 30 36 27 19 12 3 357 8 14 10 3 13 4 345 343 340 339 341 332
197 202 204 210 213 226 235 221 210 195 191 216 228 214 203 202 208 216 222 237 232 257 298 55 356 338 348 345 337 332 344 357 359 3 6 8 3 356 347 337 328 324 321
198 204 208 193 204 219 219 206 197 205 206 212 213 209 208 211 215 223 237 230 232 223 222 210 193 288 337 339 354 30 14 15 30 17 5 4 12 9 357 351 343 327 309
198 202 203 202 207 197 200 193 207 210 209 206 213 218 224 225 215 211 219 224 223 212 207 222 215 145 340 342 342 347 2 58 23 21 12 8 12 25 26 11 353 338 324
201 184 197 201 204 210 203 200 208 213 201 209 220 227 231 231 220 208 204 214 223 212 202 196 197 191 217 264 274 322 327 334 354 29 23 26 21 26 22 26 19 7 358
163 180 185 180 202 218 219 224 238 243 235 237 234 233 234 235 229 213 203 212 216 209 203 195 190 200 224 234 266 281 295 303 310 349 34 19 21 15 7 9 9 1 354
163 168 198 207 217 219 228 236 255 265 253 246 246 239 238 237 234 221 214 219 206 200 201 197 205 184 193 212 224 233 242 242 250 288 233 51 25 5 6 8 2 2 1
177 187 191 214 228 219 213 294 283 281 265 251 240 236 238 235 233 224 225 219 204 199 212 206 205 207 201 206 220 240 246 238 213 225 247 177 348 20 2 6 4 360 351
170 183 201 210 223 171 171 228 254 243 261 259 247 244 240 237 234 225 229 220 207 207 214 203 186 204 227 198 147 277 263 233 227 198 206 213 180 323 0 1 348 348 344
179 202 208 226 221 215 166 281 271 324 296 285 280 273 256 246 237 226 224 225 212 217 217 202 187 192 220 181 177 107 289 315 304 227 238 196 205 174 14 351 342 330 333
198 208 231 287 316 298 266 314 331 305 295 303 302 288 275 261 259 240 238 234 225 213 221 216 204 191 213 194 210 161 141 221 340 296 215 245 166 129 41 352 318 318 320
315 337 336 345 339 344 345 335 312 269 279 261 272 273 292 285 264 256 250 243 236 231 233 220 201 199 148 176 208 239 339 146 181 290 305 246 315 39 323 312 299 299 301
21 23 23 34 69 60 46 15 339 311 272 273 281 283 285 285 274 268 260 256 242 228 213 174 138 140 134 145 130 122 1 348 32 173 247 285 291 234 230 249 271 286 300
31 34 28 27 18 14 5 352 309 291 307 312 302 290 281 266 278 289 275 234 108 97 97 102 95 85 78 66 80 64 69 16 9 351 327 294 272 285 228 253 250 264 283